Tracking 29892 objects as of 21-Nov-2024
HD Live streaming from Space Station
objects crossing your sky now

STARLINK-31897

Track STARLINK-31897 now!
10-day predictions
STARLINK-31897 is classified as:


NORAD ID: 59852
Int'l Code: 2024-097T
Perigee: 444.1 km
Apogee: 447.7 km
Inclination: 43.0 °
Period: 93.4 minutes
Semi major axis: 6816 km
RCS: Unknown
Launch date: May 23, 2024
Source: United States (US)
Launch site: AIR FORCE EASTERN TEST RANGE (AFETR)
Your satellite tracking list
Your tracking list is empty




NASA's NSSDC Master Catalog

Two Line Element Set (TLE):
1 59852U 24097T   24325.39431241  .00009138  00000-0  21284-3 0  9995
2 59852  43.0033  85.5535 0002622 318.6957  41.3702 15.42484008 29235
Source of the keplerian elements: AFSPC